Location: Az?znagar
(16.8373°N, 80.5091°E)
Time: 15:20:16
(UTC+00:00)

CZ-4C R/B - Visible Passes

Search period start: 03 July 2022 00:00
Search period end: 13 July 2022 00:00
Orbit: 395 x 466 km, 97.7° (Epoch: 02 July)

Date Brightness Start Highest point End Pass type
(mag) Time Alt. Az. Time Alt. Az. Time Alt. Az.
03 Jul 4.6 14:10:25 10° N 14:13:34 37° WNW 14:16:47 10° SW visible
05 Jul 5.4 14:21:21 10° NNW 14:24:13 25° WNW 14:27:07 10° SW visible
06 Jul 3.0 13:40:08 10° NNE 13:43:30 57° ESE 13:46:54 10° S visible
07 Jul 6.0 14:32:23 10° NNW 14:34:48 18° WNW 14:37:13 10° WSW visible
08 Jul 2.9 13:50:39 10° NNE 13:54:06 88° ESE 13:57:34 10° S visible
09 Jul 6.3 14:43:43 10° NW 14:45:19 13° WNW 14:46:55 10° WSW visible
10 Jul 3.6 14:01:13 10° N 14:04:37 60° WNW 14:08:02 10° SSW visible
12 Jul 4.5 14:11:50 10° N 14:15:05 39° WNW 14:18:21 10° SSW visible
